| time (UTC) | temp C | wind direction | speed KPH | gust KPH | rain 1hr cm | rain 24hr cm | rain mn cm | humidity % | barometer mb |
| 20260504231931 | 18 | 180 | 1.6 | 3.2 | 0.00 | 0.00 | 0.00 | 57 | 1010.3 |
| 20260504231427 | 18 | 181 | 4.8 | 9.7 | 0.00 | 0.00 | 0.00 | 57 | 1010.1 |
| 20260504230924 | 18 | 240 | 6.4 | 8.0 | 0.00 | 0.00 | 0.00 | 57 | 1010.1 |
| 20260504230421 | 18 | 186 | 1.6 | 11.3 | 0.00 | 0.00 | 0.00 | 57 | 1010.3 |
| 20260504225920 | 18 | 210 | 8.0 | 11.3 | 0.00 | 0.00 | 0.00 | 56 | 1010.0 |
| 20260504225416 | 18 | 220 | 6.4 | 12.9 | 0.00 | 0.00 | 0.00 | 56 | 1010.4 |
| 20260504224914 | 18 | 181 | 1.6 | 11.3 | 0.00 | 0.00 | 0.00 | 55 | 1010.2 |
| 20260504224410 | 18 | 183 | 0.0 | 8.0 | 0.00 | 0.00 | 0.00 | 55 | 1010.2 |
| 20260504223907 | 18 | 188 | 0.0 | 4.8 | 0.00 | 0.00 | 0.00 | 56 | 1010.0 |
| 20260504223402 | 18 | 195 | 1.6 | 9.7 | 0.00 | 0.00 | 0.00 | 55 | 1010.0 |
| 20260504222859 | 18 | 262 | 11.3 | 14.5 | 0.00 | 0.00 | 0.00 | 55 | 1010.0 |
| 20260504222356 | 18 | 204 | 4.8 | 4.8 | 0.00 | 0.00 | 0.00 | 55 | 1010.3 |
| 20260504221854 | 19 | 255 | 9.7 | 12.9 | 0.00 | 0.00 | 0.00 | 54 | 1010.3 |
| 20260504221351 | 19 | 166 | 1.6 | 11.3 | 0.00 | 0.00 | 0.00 | 54 | 1010.2 |
| 20260504220848 | 20 | 248 | 8.0 | 9.7 | 0.00 | 0.00 | 0.00 | 54 | 1010.4 |
| 20260504220344 | 20 | 242 | 8.0 | 11.3 | 0.00 | 0.00 | 0.00 | 54 | 1010.2 |
| 20260504215842 | 20 | 188 | 1.6 | 3.2 | 0.00 | 0.00 | 0.00 | 55 | 1010.2 |
| 20260504215338 | 19 | 188 | 1.6 | 9.7 | 0.00 | 0.00 | 0.00 | 55 | 1010.0 |
| 20260504214834 | 18 | 187 | 0.0 | 1.6 | 0.00 | 0.00 | 0.00 | 59 | 1010.3 |
| 20260504214331 | 18 | 180 | 0.0 | 1.6 | 0.00 | 0.00 | 0.00 | 57 | 1010.3 |
| 20260504213828 | 18 | 177 | 3.2 | 8.0 | 0.00 | 0.00 | 0.00 | 56 | 1010.3 |
| 20260504213324 | 19 | 178 | 1.6 | 3.2 | 0.00 | 0.00 | 0.00 | 55 | 1010.3 |
| 20260504212821 | 18 | 192 | 1.6 | 8.0 | 0.00 | 0.00 | 0.00 | 57 | 1010.3 |
| 20260504212317 | 18 | 185 | 4.8 | 9.7 | 0.00 | 0.00 | 0.00 | 56 | 1010.2 |
| 20260504211815 | 18 | 242 | 6.4 | 8.0 | 0.00 | 0.00 | 0.00 | 56 | 1010.1 |
| 20260504211311 | 18 | 214 | 3.2 | 8.0 | 0.00 | 0.00 | 0.00 | 56 | 1010.3 |
| 20260504210809 | 18 | 234 | 4.8 | 9.7 | 0.00 | 0.00 | 0.00 | 56 | 1010.2 |
| 20260504210306 | 18 | 221 | 3.2 | 8.0 | 0.00 | 0.00 | 0.00 | 55 | 1010.2 |
| 20260504205803 | 18 | 203 | 3.2 | 9.7 | 0.00 | 0.00 | 0.00 | 55 | 1010.4 |
| 20260504205300 | 18 | 186 | 3.2 | 9.7 | 0.00 | 0.00 | 0.00 | 55 | 1010.3 |
| 20260504204758 | 19 | 176 | 3.2 | 3.2 | 0.00 | 0.00 | 0.00 | 54 | 1010.1 |
| 20260504204256 | 19 | 191 | 3.2 | 8.0 | 0.00 | 0.00 | 0.00 | 53 | 1010.3 |
| 20260504203756 | 19 | 189 | 3.2 | 8.0 | 0.00 | 0.00 | 0.00 | 54 | 1010.2 |
| 20260504203252 | 19 | 177 | 4.8 | 11.3 | 0.00 | 0.00 | 0.00 | 53 | 1010.3 |
| 20260504202747 | 20 | 214 | 4.8 | 12.9 | 0.00 | 0.00 | 0.00 | 52 | 1010.4 |
| 20260504202245 | 20 | 175 | 8.0 | 11.3 | 0.00 | 0.00 | 0.00 | 51 | 1010.1 |
| 20260504201741 | 20 | 175 | 1.6 | 3.2 | 0.00 | 0.00 | 0.00 | 50 | 1010.4 |
| 20260504201238 | 20 | 178 | 0.0 | 3.2 | 0.00 | 0.00 | 0.00 | 50 | 1010.2 |
| 20260504200737 | 20 | 211 | 9.7 | 12.9 | 0.00 | 0.00 | 0.00 | 49 | 1010.2 |
| 20260504200232 | 20 | 187 | 1.6 | 8.0 | 0.00 | 0.00 | 0.00 | 48 | 1010.3 |
| 20260504195729 | 21 | 272 | 11.3 | 14.5 | 0.00 | 0.00 | 0.00 | 47 | 1010.0 |
| 20260504195225 | 21 | 203 | 1.6 | 3.2 | 0.00 | 0.00 | 0.00 | 48 | 1010.0 |
| 20260504194722 | 21 | 190 | 1.6 | 3.2 | 0.00 | 0.00 | 0.00 | 49 | 1010.0 |
| 20260504194218 | 20 | 192 | 4.8 | 12.9 | 0.00 | 0.00 | 0.00 | 48 | 1010.1 |
| 20260504193715 | 21 | 213 | 4.8 | 11.3 | 0.00 | 0.00 | 0.00 | 47 | 1010.1 |
| 20260504193212 | 20 | 220 | 3.2 | 11.3 | 0.00 | 0.00 | 0.00 | 48 | 1010.1 |
| 20260504192710 | 21 | 263 | 8.0 | 9.7 | 0.00 | 0.00 | 0.00 | 48 | 1010.1 |
| 20260504192208 | 21 | 181 | 4.8 | 9.7 | 0.00 | 0.00 | 0.00 | 47 | 1010.3 |
| 20260504191707 | 21 | 211 | 4.8 | 20.9 | 0.00 | 0.00 | 0.00 | 48 | 1010.4 |
| 20260504191203 | 20 | 186 | 1.6 | 11.3 | 0.00 | 0.00 | 0.00 | 50 | 1010.4 |
| 20260504190658 | 21 | 224 | 4.8 | 16.1 | 0.00 | 0.00 | 0.00 | 48 | 1010.4 |
| 20260504190155 | 21 | 171 | 11.3 | 16.1 | 0.00 | 0.00 | 0.00 | 47 | 1010.6 |
| 20260504185651 | 20 | 190 | 1.6 | 9.7 | 0.00 | 0.00 | 0.00 | 49 | 1010.3 |
| 20260504185148 | 20 | 241 | 9.7 | 14.5 | 0.00 | 0.00 | 0.00 | 49 | 1010.6 |
| 20260504184644 | 21 | 227 | 11.3 | 16.1 | 0.00 | 0.00 | 0.00 | 49 | 1010.7 |
| 20260504184139 | 21 | 198 | 4.8 | 12.9 | 0.00 | 0.00 | 0.00 | 49 | 1010.6 |
| 20260504183636 | 20 | 190 | 8.0 | 12.9 | 0.00 | 0.00 | 0.00 | 49 | 1010.9 |
| 20260504183134 | 20 | 220 | 6.4 | 9.7 | 0.00 | 0.00 | 0.00 | 50 | 1011.0 |
| 20260504182631 | 20 | 225 | 6.4 | 14.5 | 0.00 | 0.00 | 0.00 | 52 | 1011.0 |
| 20260504182129 | 20 | 203 | 3.2 | 11.3 | 0.00 | 0.00 | 0.00 | 53 | 1011.2 |
| 20260504181626 | 20 | 231 | 6.4 | 12.9 | 0.00 | 0.00 | 0.00 | 53 | 1011.1 |
| 20260504181123 | 19 | 238 | 16.1 | 17.7 | 0.00 | 0.00 | 0.00 | 53 | 1011.3 |
| 20260504180623 | 20 | 253 | 12.9 | 17.7 | 0.00 | 0.00 | 0.00 | 52 | 1011.2 |
| 20260504180121 | 20 | 238 | 3.2 | 9.7 | 0.00 | 0.00 | 0.00 | 53 | 1011.3 |
| 20260504175618 | 20 | 204 | 8.0 | 11.3 | 0.00 | 0.00 | 0.00 | 54 | 1011.3 |
| 20260504175114 | 18 | 154 | 4.8 | 14.5 | 0.00 | 0.00 | 0.00 | 56 | 1011.6 |
| 20260504174613 | 18 | 214 | 4.8 | 8.0 | 0.00 | 0.00 | 0.00 | 57 | 1011.5 |
| 20260504174109 | 18 | 181 | 1.6 | 8.0 | 0.00 | 0.00 | 0.00 | 57 | 1011.5 |
| 20260504173606 | 18 | 174 | 6.4 | 14.5 | 0.00 | 0.00 | 0.00 | 58 | 1011.3 |
| 20260504173104 | 18 | 247 | 4.8 | 14.5 | 0.00 | 0.00 | 0.00 | 57 | 1011.7 |
| 20260504172559 | 17 | 195 | 3.2 | 9.7 | 0.00 | 0.00 | 0.00 | 59 | 1011.5 |
| 20260504172056 | 17 | 201 | 1.6 | 9.7 | 0.00 | 0.00 | 0.00 | 60 | 1011.8 |
| 20260504171553 | 16 | 212 | 8.0 | 11.3 | 0.00 | 0.00 | 0.00 | 60 | 1011.8 |
| 20260504171050 | 17 | 240 | 8.0 | 9.7 | 0.00 | 0.00 | 0.00 | 60 | 1012.2 |
| 20260504170545 | 17 | 169 | 3.2 | 14.5 | 0.00 | 0.00 | 0.00 | 59 | 1011.9 |
| 20260504150930 | 16 | 253 | 11.3 | 17.7 | 0.00 | 0.00 | 0.00 | 55 | 1013.1 |
| 20260504150426 | 16 | 218 | 6.4 | 12.9 | 0.00 | 0.00 | 0.00 | 54 | 1013.0 |
| 20260504140853 | 15 | 251 | 6.4 | 12.9 | 0.00 | 0.00 | 0.00 | 53 | 1013.0 |
| 20260504140349 | 16 | 178 | 3.2 | 11.3 | 0.00 | 0.00 | 0.00 | 53 | 1013.0 |
| 20260504130818 | 14 | 186 | 3.2 | 11.3 | 0.00 | 0.00 | 0.00 | 53 | 1012.6 |
| 20260504130314 | 13 | 173 | 1.6 | 9.7 | 0.00 | 0.00 | 0.00 | 53 | 1012.6 |
| 20260504120237 | 10 | 198 | 4.8 | 4.8 | 0.00 | 0.00 | 0.00 | 61 | 1013.1 |
| 20260504110705 | 8 | 196 | 1.6 | 3.2 | 0.00 | 0.00 | 0.00 | 70 | 1013.4 |
| 20260504110201 | 8 | 193 | 1.6 | 3.2 | 0.00 | 0.00 | 0.00 | 73 | 1013.4 |
| 20260504100119 | 7 | 182 | 0.0 | 0.0 | 0.00 | 0.00 | 0.00 | 83 | 1013.7 |
| 20260504081512 | 8 | 188 | 1.6 | 3.2 | 0.00 | 0.00 | 0.00 | 71 | 1013.9 |
| 20260504081008 | 8 | 185 | 0.0 | 1.6 | 0.00 | 0.00 | 0.00 | 69 | 1014.0 |
| 20260504080504 | 8 | 186 | 1.6 | 3.2 | 0.00 | 0.00 | 0.00 | 69 | 1014.0 |
| 20260504050317 | 7 | 184 | 0.0 | 1.6 | 0.00 | 0.00 | 0.00 | 72 | 1014.2 |
| 20260504045809 | 7 | 184 | 0.0 | 0.0 | 0.00 | 0.00 | 0.00 | 70 | 1014.6 |
| 20260504045309 | 7 | 184 | 0.0 | 0.0 | 0.00 | 0.00 | 0.00 | 67 | 1014.6 |
| 20260504044806 | 7 | 184 | 0.0 | 0.0 | 0.00 | 0.00 | 0.00 | 66 | 1014.5 |
| 20260504044304 | 7 | 184 | 0.0 | 0.0 | 0.00 | 0.00 | 0.00 | 67 | 1014.3 |
| 20260504043801 | 7 | 184 | 0.0 | 0.0 | 0.00 | 0.00 | 0.00 | 64 | 1014.4 |
| 20260504043258 | 7 | 184 | 0.0 | 0.0 | 0.00 | 0.00 | 0.00 | 61 | 1014.6 |
| 20260504042755 | 7 | 184 | 0.0 | 0.0 | 0.00 | 0.00 | 0.00 | 63 | 1014.2 |
| 20260504042251 | 7 | 184 | 0.0 | 0.0 | 0.00 | 0.00 | 0.00 | 62 | 1014.6 |
| 20260504041748 | 7 | 184 | 0.0 | 0.0 | 0.00 | 0.00 | 0.00 | 65 | 1014.6 |
| 20260504041244 | 7 | 184 | 0.0 | 0.0 | 0.00 | 0.00 | 0.00 | 65 | 1014.4 |
| 20260504040740 | 7 | 184 | 0.0 | 0.0 | 0.00 | 0.00 | 0.00 | 63 | 1014.5 |
| 20260504040238 | 7 | 184 | 0.0 | 0.0 | 0.00 | 0.00 | 0.00 | 62 | 1014.4 |
| 20260504035733 | 7 | 184 | 0.0 | 0.0 | 0.00 | 0.00 | 0.00 | 65 | 1014.4 |
| 20260504035231 | 7 | 184 | 0.0 | 0.0 | 0.00 | 0.00 | 0.00 | 65 | 1014.7 |
| 20260504034729 | 7 | 184 | 0.0 | 0.0 | 0.00 | 0.00 | 0.00 | 64 | 1014.6 |
| 20260504034225 | 7 | 184 | 0.0 | 0.0 | 0.00 | 0.00 | 0.00 | 64 | 1014.5 |
| 20260504033723 | 7 | 184 | 0.0 | 0.0 | 0.00 | 0.00 | 0.00 | 61 | 1014.6 |
| 20260504033220 | 7 | 185 | 1.6 | 1.6 | 0.00 | 0.00 | 0.00 | 67 | 1014.5 |
| 20260504032717 | 7 | 184 | 0.0 | 0.0 | 0.00 | 0.00 | 0.00 | 63 | 1014.6 |
| 20260504032214 | 7 | 184 | 0.0 | 0.0 | 0.00 | 0.00 | 0.00 | 65 | 1014.5 |
| 20260504031711 | 7 | 184 | 0.0 | 0.0 | 0.00 | 0.00 | 0.00 | 64 | 1014.8 |
| 20260504031209 | 7 | 184 | 0.0 | 0.0 | 0.00 | 0.00 | 0.00 | 62 | 1014.8 |
| 20260504030704 | 7 | 184 | 0.0 | 0.0 | 0.00 | 0.00 | 0.00 | 61 | 1014.7 |
| 20260504030202 | 7 | 185 | 0.0 | 0.0 | 0.00 | 0.00 | 0.00 | 61 | 1014.5 |
| 20260504025658 | 7 | 185 | 0.0 | 1.6 | 0.00 | 0.00 | 0.00 | 60 | 1014.7 |
| 20260504025154 | 7 | 185 | 0.0 | 1.6 | 0.00 | 0.00 | 0.00 | 60 | 1014.5 |
| 20260504024652 | 7 | 185 | 1.6 | 1.6 | 0.00 | 0.00 | 0.00 | 63 | 1014.7 |
| 20260504024148 | 7 | 184 | 0.0 | 0.0 | 0.00 | 0.00 | 0.00 | 59 | 1014.9 |
| 20260504023645 | 7 | 184 | 0.0 | 0.0 | 0.00 | 0.00 | 0.00 | 64 | 1014.8 |
| 20260504023141 | 7 | 184 | 0.0 | 1.6 | 0.00 | 0.00 | 0.00 | 62 | 1014.8 |
| 20260504022637 | 7 | 184 | 0.0 | 1.6 | 0.00 | 0.00 | 0.00 | 60 | 1014.8 |
| 20260504022133 | 7 | 184 | 0.0 | 0.0 | 0.00 | 0.00 | 0.00 | 58 | 1014.7 |
| 20260504021632 | 7 | 184 | 0.0 | 0.0 | 0.00 | 0.00 | 0.00 | 64 | 1014.7 |
| 20260504021128 | 7 | 184 | 0.0 | 0.0 | 0.00 | 0.00 | 0.00 | 61 | 1014.8 |
| 20260504020625 | 8 | 184 | 0.0 | 0.0 | 0.00 | 0.00 | 0.00 | 60 | 1014.5 |
| 20260504020121 | 8 | 185 | 0.0 | 0.0 | 0.00 | 0.00 | 0.00 | 59 | 1014.7 |
| 20260504015618 | 8 | 184 | 0.0 | 1.6 | 0.00 | 0.00 | 0.00 | 61 | 1014.8 |
| 20260504015114 | 8 | 184 | 0.0 | 0.0 | 0.00 | 0.00 | 0.00 | 58 | 1014.7 |
| 20260504014610 | 8 | 185 | 0.0 | 0.0 | 0.00 | 0.00 | 0.00 | 62 | 1014.9 |
| 20260504014107 | 8 | 185 | 0.0 | 0.0 | 0.00 | 0.00 | 0.00 | 57 | 1014.8 |
| 20260504013605 | 8 | 185 | 0.0 | 0.0 | 0.00 | 0.00 | 0.00 | 57 | 1015.0 |
| 20260504013102 | 8 | 185 | 0.0 | 1.6 | 0.00 | 0.00 | 0.00 | 59 | 1014.6 |
| 20260504012559 | 8 | 184 | 0.0 | 1.6 | 0.00 | 0.00 | 0.00 | 61 | 1014.6 |
| 20260504012057 | 8 | 185 | 0.0 | 0.0 | 0.00 | 0.00 | 0.00 | 55 | 1014.6 |
| 20260504011553 | 7 | 185 | 0.0 | 0.0 | 0.00 | 0.00 | 0.00 | 61 | 1014.5 |
| 20260504011049 | 7 | 185 | 0.0 | 0.0 | 0.00 | 0.00 | 0.00 | 58 | 1014.7 |
| 20260504010545 | 7 | 185 | 0.0 | 0.0 | 0.00 | 0.00 | 0.00 | 58 | 1014.6 |
| 20260504010042 | 7 | 185 | 0.0 | 0.0 | 0.00 | 0.00 | 0.00 | 61 | 1014.5 |
| 20260504005538 | 7 | 185 | 0.0 | 0.0 | 0.00 | 0.00 | 0.00 | 58 | 1014.3 |
| 20260504005036 | 7 | 185 | 0.0 | 1.6 | 0.00 | 0.00 | 0.00 | 59 | 1014.3 |
| 20260504004533 | 8 | 185 | 0.0 | 0.0 | 0.00 | 0.00 | 0.00 | 58 | 1014.3 |
| 20260504004030 | 8 | 185 | 0.0 | 0.0 | 0.00 | 0.00 | 0.00 | 53 | 1014.4 |
| 20260504003526 | 8 | 185 | 1.6 | 1.6 | 0.00 | 0.00 | 0.00 | 56 | 1014.3 |
| 20260504003023 | 8 | 185 | 0.0 | 0.0 | 0.00 | 0.00 | 0.00 | 55 | 1014.2 |
| 20260504002520 | 8 | 185 | 0.0 | 1.6 | 0.00 | 0.00 | 0.00 | 56 | 1014.2 |
| 20260504002018 | 8 | 185 | 0.0 | 1.6 | 0.00 | 0.00 | 0.00 | 56 | 1014.3 |
| 20260504001515 | 8 | 186 | 1.6 | 1.6 | 0.00 | 0.00 | 0.00 | 52 | 1014.5 |
| 20260504001011 | 9 | 185 | 0.0 | 0.0 | 0.00 | 0.00 | 0.00 | 50 | 1014.4 |
| 20260504000509 | 10 | 185 | 0.0 | 0.0 | 0.00 | 0.00 | 0.00 | 50 | 1014.6 |
| 20260504000006 | 10 | 187 | 0.0 | 0.0 | 0.00 | 0.00 | 0.00 | 48 | 1014.3 |
| 20260503235504 | 10 | 184 | 1.6 | 1.6 | 0.00 | 0.00 | 0.00 | 49 | 1014.5 |
| 20260503235001 | 10 | 185 | 1.6 | 1.6 | 0.00 | 0.00 | 0.00 | 46 | 1014.3 |
| 20260503234458 | 10 | 208 | 3.2 | 4.8 | 0.00 | 0.00 | 0.00 | 46 | 1014.3 |
| 20260503233956 | 10 | 185 | 0.0 | 0.0 | 0.00 | 0.00 | 0.00 | 47 | 1014.5 |
| 20260503233452 | 10 | 185 | 0.0 | 3.2 | 0.00 | 0.00 | 0.00 | 45 | 1014.5 |
| 20260503232948 | 10 | 187 | 1.6 | 4.8 | 0.00 | 0.00 | 0.00 | 44 | 1014.4 |
| 20260503232446 | 10 | 183 | 3.2 | 8.0 | 0.00 | 0.00 | 0.00 | 44 | 1014.3 |